Location: Alfortville
(48.8058°N, 2.4204°E)
Time: 12:31:20
(UTC+00:00)

Meteor 1-19 Rocket - Pass Details

Date: 07 December 2023
Orbit: 806 x 928 km, 81.2° (Epoch: 01 March)

Event Time Altitude Azimuth Distance (km) Brightness Sun altitude
Rises 06:15:53 0° 349° (NNW) 3,590 7.1 -11.4°
Reaches altitude 10° 06:18:25 10° 351° (N) 2,639 6.5 -11.0°
Maximum altitude 06:24:28 74° 76° (ENE) 957 4.6 -10.1°
Drops below altitude 10° 06:30:21 10° 162° (SSE) 2,571 7.4 -9.2°
Sets 06:32:47 0° 164° (SSE) 3,491 8.0 -8.9°
